TimeIST,TemperatureF,Dew PointF,Humidity,Sea Level PressureIn,VisibilityMPH,Wind Direction,Wind SpeedMPH,Gust SpeedMPH,PrecipitationIn,Events,Conditions,WindDirDegrees,DateUTC
12:00 AM,80.6,75.2,84,29.44,1.9,East,6.9,-,N/A,,Haze,100,2013-06-16 18:30:00
1:00 AM,80.6,75.2,84,29.44,1.9,ENE,5.8,-,N/A,,Haze,70,2013-06-16 19:30:00
2:00 AM,80.6,75.2,84,29.42,1.9,East,6.9,-,N/A,,Haze,90,2013-06-16 20:30:00
2:30 AM,79,75,84,29.35,1,East,3.5,,,,Haze,90,2013-06-16 21:00:00
3:00 AM,78.8,75.2,89,29.42,1.9,East,4.6,-,N/A,,Haze,80,2013-06-16 21:30:00
4:00 AM,78.8,75.2,89,29.39,1.9,NE,4.6,-,N/A,,Haze,40,2013-06-16 22:30:00
5:30 AM,79,75,85,29.34,2,Calm,Calm,,,,Haze,,2013-06-17 00:00:00
6:00 AM,78.8,75.2,89,29.39,1.9,Calm,Calm,-,N/A,,Haze,0,2013-06-17 00:30:00
7:00 AM,80.6,75.2,84,29.44,1.9,Variable,4.6,-,N/A,,Haze,0,2013-06-17 01:30:00
8:00 AM,82.4,75.2,79,29.44,1.9,Variable,5.8,-,N/A,,Haze,0,2013-06-17 02:30:00
8:30 AM,84,75,67,29.37,1,NNW,4.6,,,,Haze,340,2013-06-17 03:00:00
9:00 AM,86.0,75.2,70,29.44,1.9,Variable,5.8,-,N/A,,Haze,0,2013-06-17 03:30:00
9:30 AM,87.8,75.2,66,29.44,2.5,Variable,4.6,-,N/A,,Haze,0,2013-06-17 04:00:00
10:00 AM,89.6,75.2,62,29.44,2.5,Variable,5.8,-,N/A,,Haze,0,2013-06-17 04:30:00
11:00 AM,89.6,75.2,62,29.44,2.5,Variable,8.1,-,N/A,,Haze,0,2013-06-17 05:30:00
11:30 AM,92,72,43,29.35,2,West,6.9,,,,Haze,270,2013-06-17 06:00:00
11:30 AM,91.4,75.2,59,29.44,2.5,Variable,5.8,-,N/A,,Haze,0,2013-06-17 06:00:00
12:00 PM,91.4,73.4,55,29.44,2.5,Variable,6.9,-,N/A,,Haze,0,2013-06-17 06:30:00
1:00 PM,93.2,71.6,49,29.42,2.5,NW,6.9,-,N/A,,Haze,310,2013-06-17 07:30:00
2:00 PM,93.2,71.6,49,29.39,2.5,Variable,4.6,16.1,N/A,,Haze,0,2013-06-17 08:30:00
2:30 PM,95,71,37,29.30,2,WSW,2.3,,,,Haze,250,2013-06-17 09:00:00
3:00 PM,95.0,69.8,44,29.39,2.5,Variable,4.6,-,N/A,,Haze,0,2013-06-17 09:30:00
4:00 PM,98.6,68.0,37,29.36,2.5,NNE,4.6,-,N/A,,Haze,30,2013-06-17 10:30:00
5:00 PM,98.6,66.2,35,29.33,2.5,Calm,Calm,-,N/A,,Haze,0,2013-06-17 11:30:00
5:30 PM,97,70,32,29.23,2,NE,2.3,,,,Haze,50,2013-06-17 12:00:00
6:00 PM,95.0,69.8,44,29.36,2.5,East,9.2,-,N/A,,Haze,90,2013-06-17 12:30:00
7:00 PM,95.0,69.8,44,29.39,2.5,ENE,5.8,-,N/A,,Haze,60,2013-06-17 13:30:00
8:00 PM,78.8,77.0,94,29.44,0.9,SW,16.1,-,N/A,Rain-Thunderstorm,Thunderstorms and Rain,220,2013-06-17 14:30:00
8:30 PM,77,76,95,29.42,1,South,11.5,,,Rain-Thunderstorm,Thunderstorms and Rain,180,2013-06-17 15:00:00
9:00 PM,77.0,75.2,94,29.44,1.6,South,12.7,-,N/A,Rain-Thunderstorm,Thunderstorms and Rain,180,2013-06-17 15:30:00
10:00 PM,78.8,75.2,89,29.50,0.9,East,9.2,-,N/A,Thunderstorm,Thunderstorm,90,2013-06-17 16:30:00
11:00 PM,78.8,75.2,89,29.50,1.2,SE,4.6,-,N/A,,Mostly Cloudy,140,2013-06-17 17:30:00
11:30 PM,78,75,88,29.44,1,SE,5.8,,,,Mist,140,2013-06-17 18:00:00